Location: Chennevi�res
(49.0446°N, 2.5518°E)
Time: 14:51:07
(UTC+00:00)

Daily predictions for brighter satellites

Satellite Brightness Start Highest point End
(mag) Time Altitude Azimuth Time Altitude Azimuth Time Altitude Azimuth
Cosmos 1727 Rocket 4.2 20:29:16 10° SSE 20:35:23 55° E 20:41:30 10° NNE
USA 267 4.3 20:31:12 10° ENE 20:37:23 46° N 20:43:34 10° WNW
Cosmos 1624 Rocket 4.5 20:32:47 10° SSW 20:38:05 69° WNW 20:43:23 10° NNE
Cosmos 1605 Rocket 4.3 20:31:45 10° NNW 20:38:11 79° W 20:44:33 10° S
Cosmos 1378 Rocket 3.9 20:36:42 10° SSW 20:41:02 69° W 20:45:25 10° N
Cosmos 1726 2.5 20:37:33 10° NNW 20:41:10 64° W 20:44:45 10° S
Cosmos 1844 Rocket 3.3 20:36:13 10° NNW 20:41:43 48° NE 20:47:11 10° SE
Cosmos 220 Rocket 4.1 20:37:36 10° SSW 20:41:55 84° WNW 20:46:13 10° NNE
OBJECT-B 3.8 20:41:20 10° WSW 20:42:35 12° W 20:43:51 10° WNW
BREEZE-M DEB (TANK) 3.4 20:40:33 10° SSW 20:42:43 26° SE 20:46:21 10° E
Cosmos 1758 3.3 20:39:23 10° N 20:43:23 86° E 20:47:21 10° S
Cosmos 2285 Rocket 4.1 20:38:32 10° SSW 20:44:58 81° ESE 20:51:26 10° NNE
Okean 2 3.7 20:42:34 10° SSW 20:46:38 68° W 20:50:43 10° N
Meteor 2-20 4.5 20:43:33 10° S 20:49:39 84° E 20:55:47 10° N
Cosmos 292 Rocket 3.8 20:45:45 10° SSW 20:50:35 76° ESE 20:55:25 10° NNE
Cosmos 1908 3.9 20:47:01 10° N 20:50:43 40° ENE 20:54:23 10° SE
Lacrosse 5 rocket 2.7 20:52:04 10° SSE 20:54:13 15° SE 20:56:19 10° E
Cosmos 2263 Rocket 3.4 20:49:19 10° NW 20:54:32 38° WSW 20:59:43 10° S
SPOT 5 3.3 20:53:22 10° SSE 20:58:25 55° ENE 21:03:13 10° N
Cosmos 1707 3.0 20:56:28 10° SSW 21:00:19 70° W 21:04:14 10° N
Cosmos 1452 Rocket 3.5 20:57:02 10° SSW 21:02:17 72° ESE 21:07:34 10° NNE
In-Cosmos 22 4.1 21:02:51 10° S 21:08:08 84° E 21:13:27 10° NNE
Cosmos 1459 Rocket 4.0 21:02:34 10° N 21:08:37 69° ENE 21:14:34 10° SSE
Resurs 01 Rocket 3.2 21:06:14 10° SSW 21:10:08 31° W 21:14:04 10° NNW
Terra 2.3 21:06:08 11° SE 21:10:29 50° ENE 21:15:06 10° N
Cosmos 1850 Rocket 4.1 21:05:29 10° NNW 21:10:50 81° WSW 21:15:54 11° SSE
SPOT 1/Viking Rocket 4.0 21:06:04 10° S 21:11:08 60° W 21:16:14 10° NNW
Cosmos 1953 2.3 21:07:15 10° N 21:11:20 77° E 21:15:10 11° SSE
Lacrosse 5 2.9 21:07:06 10° WNW 21:11:42 35° SW 21:16:06 11° SSE
Cosmos 2333 Rocket 3.3 21:09:00 10° SSE 21:13:32 26° ESE 21:18:12 10° NE
Cosmos 1025 Rocket 3.5 21:10:01 10° SSE 21:14:06 43° E 21:18:15 10° NNE
CARTOSAT-1 3.7 21:11:05 10° S 21:15:24 78° WSW 21:19:45 10° NNW
NOSS 3-2 (C) 3.8 21:12:35 10° SW 21:18:17 71° NW 21:24:59 10° NE
Geosat 4.2 21:15:06 11° SSE 21:19:51 67° WSW 21:24:53 10° NW
SL-14 R/B 4.3 21:17:36 14° SSE 21:20:30 31° E 21:24:06 10° NNE
FALCON 9 DEB 3.6 21:18:29 10° SSW 21:21:41 37° SE 21:24:52 10° ENE
Spot 2 Rocket 3.8 21:18:08 10° S 21:23:09 65° WSW 21:28:14 10° NNW
Cosmos 1975 Rocket 3.1 21:19:35 10° S 21:23:57 83° W 21:28:22 10° N
Cosmos 2061 Rocket 4.3 21:17:48 10° N 21:24:11 60° ENE 21:29:43 14° SSE
ATLAS 3B R/B 3.3 21:19:25 10° S 21:25:09 33° ESE 21:31:01 10° NE
Cosmos 1844 3.7 21:19:57 10° NNW 21:25:34 79° ENE 21:30:18 15° SSE
Meteor 2-11 Rocket 4.5 21:21:39 10° N 21:27:49 84° E 21:33:25 12° S
Cosmos 1461 2.9 21:23:35 10° NW 21:27:51 75° SW 21:30:58 17° SSE
Cosmos 1331 Rocket 4.1 21:23:11 10° S 21:28:17 56° ESE 21:33:28 10° NNE
Cosmos 2219 Rocket 3.2 21:24:38 13° SSE 21:28:43 29° ESE 21:33:31 10° NE
ERS-1 Rocket 3.0 21:24:38 12° SSE 21:29:21 82° WSW 21:34:26 10° NNW
Cosmos 1626 2.2 21:27:13 13° S 21:30:23 60° E 21:34:03 10° NNE
Aureole 1 Rocket 4.1 21:28:20 10° NNW 21:33:58 82° WSW 21:40:17 14° SSE
SL-8 R/B 3.8 21:33:18 10° W 21:38:02 59° SSW 21:41:58 14° ESE
BREEZE-M DEB (TANK) 3.0 21:35:10 10° WNW 21:38:13 31° SW 21:39:07 22° S
Cosmos 2123 Rocket 4.1 21:34:02 12° S 21:39:51 63° E 21:46:06 10° NNE
BREEZE-M DEB (TANK) 2.4 21:37:50 10° SW 21:40:17 37° SE 21:44:58 10° ENE
KORONAS-FOTON 4.4 21:37:22 10° SSW 21:41:07 56° WNW 21:44:52 10° N
ATLAS CENTAUR R/B 1.7 21:38:40 10° NW 21:42:57 66° NE 21:46:25 17° SE
Cosmos 2237 Rocket 4.1 21:42:24 10° ESE 21:44:11 12° E 21:45:59 10° ENE
USA 215 3.7 21:38:55 10° ENE 21:44:57 38° SE 21:50:56 10° SSW
Cosmos 1867 4.5 21:41:49 10° NNW 21:47:05 44° NE 21:52:15 10° ESE
ARIANE 5 R/B 3.7 21:43:40 10° SSW 21:47:50 39° W 21:52:04 10° NNW
Cosmos 2233 Rocket 4.3 21:42:24 10° N 21:48:26 54° ENE 21:53:02 18° SSE
Cosmos 2100 Rocket 4.5 21:42:19 10° NNW 21:48:35 60° W 21:54:45 10° S
SL-16 R/B 3.3 21:43:23 10° SW 21:48:51 47° NW 21:54:20 10° NNE
Cosmos 2360 Rocket 2.2 21:44:31 10° SSW 21:50:11 87° WNW 21:55:52 10° NNE
Cosmos 2322 Rocket 3.0 21:46:00 10° SW 21:51:35 55° WNW 21:57:13 10° NNE
Centaur D AC-29 4.1 21:33:59 10° WSW 21:54:27 21° SW 21:59:44 13° S
Cosmos 1455 4.1 21:57:44 10° NNE 22:00:32 19° ENE 22:02:38 13° ESE
Cosmos 1674 4.2 21:58:28 10° SW 22:01:50 32° WNW 22:05:14 10° N
Cosmos 389 Rocket 3.7 21:58:50 10° N 22:01:52 29° ENE 22:03:30 20° ESE
Cosmos 1544 Rocket 4.4 22:00:43 10° NNW 22:05:01 47° W 22:08:31 15° SSW
COSMOS 2428 3.1 22:01:02 18° S 22:05:02 44° ESE 22:10:28 10° NE
CENTAUR R/B 4.0 21:59:47 10° W 22:05:47 43° NNW 22:12:53 10° NE
H-2A R/B 3.4 22:02:04 10° NNE 22:06:11 87° WNW 22:09:24 16° SSW
Cosmos 2322 3.7 22:02:40 12° SSW 22:07:56 65° ESE 22:13:34 10° NNE
Cosmos 1300 2.7 22:04:34 10° NNW 22:08:24 81° W 22:10:36 24° S
Cosmos 1606 Rocket 4.3 22:05:41 10° N 22:09:57 41° ENE 22:12:29 21° SE
Cosmos 2016 Rocket 4.3 22:05:03 10° NNW 22:11:05 63° W 22:16:03 15° S
Cosmos 2278 Rocket 2.9 22:08:34 10° NNW 22:14:01 46° NE 22:18:27 15° ESE
ALOS 2 4.1 22:11:48 14° ESE 22:14:38 26° ENE 22:18:18 10° N
Cosmos 1486 Rocket 4.2 22:12:13 10° NNW 22:17:25 63° ENE 22:20:48 21° SE
USA 267 3.5 22:13:26 10° ESE 22:19:57 73° NNE 22:26:30 10° NW
Cosmos 1346 Rocket 3.3 22:19:17 27° SSE 22:21:01 44° E 22:24:51 10° NNE
Cosmos 1725 Rocket 4.3 22:16:25 10° NNW 22:22:29 60° W 22:27:17 17° SSW
Cosmos 1844 Rocket 3.9 22:20:25 10° NW 22:25:26 33° WSW 22:29:19 15° SSW
Meteor 2-5 Rocket 3.7 22:24:44 16° SSW 22:29:13 81° WNW 22:34:51 10° N
Cosmos 1340 3.6 22:26:35 14° SW 22:29:37 45° WNW 22:33:16 10° N
Cosmos 968 Rocket 3.4 22:25:23 10° NNW 22:30:31 82° WSW 22:33:31 25° SSE
Lacrosse 5 rocket 0.9 22:29:10 10° SW 22:32:49 88° NW 22:36:25 10° NE
Cosmos 405 4.3 22:31:01 10° NNW 22:34:05 30° W 22:35:50 19° SW
Cosmos 1992 Rocket 4.4 22:32:39 25° SSE 22:35:19 47° ESE 22:40:20 10° NNE
Cosmos 1184 Rocket 4.3 22:38:30 21° ESE 22:38:57 22° E 22:41:33 10° NE
Cosmos 1536 Rocket 4.4 22:35:24 14° SSW 22:39:02 48° WNW 22:43:22 10° N
GEOS 3 Rocket 3.7 22:36:02 24° SSE 22:39:19 69° SW 22:44:40 10° NW
Cosmos 1607 4.3 22:36:13 10° NW 22:42:38 63° NE 22:47:53 15° SE
Terra 3.6 22:45:01 11° SW 22:48:31 23° W 22:52:16 10° NW
DNEPR-1 R/B 4.4 22:45:04 10° NW 22:48:56 36° WSW 22:50:34 26° SSW
Cosmos 1980 4.2 22:50:46 26° SSE 22:53:25 43° ESE 22:58:46 10° NE
FALCON 9 DEB 2.9 22:56:15 51° SSE 22:56:15 51° SSE 22:59:18 10° ENE
Cosmos 2333 Rocket 2.7 22:51:44 10° SW 22:57:25 61° WNW 23:03:07 10° NNE
Cosmos 1943 Rocket 4.0 22:53:32 10° N 22:58:04 25° NE 23:02:35 10° E
FALCON 9 DEB 3.7 22:55:06 10° W 22:58:28 58° NNW 23:01:52 10° ENE
Cosmos 2228 3.5 22:54:56 10° NNW 22:59:15 54° W 23:01:23 27° SSW
BREEZE-M DEB (TANK) 3.2 22:56:23 10° SW 23:04:48 44° SSE 23:07:48 10° E
Cosmos 2034 Rocket 4.3 22:59:33 10° N 23:05:39 56° ENE 23:09:25 23° SE
Okean 1-7 Rocket 4.1 23:06:13 30° SSE 23:07:58 46° E 23:12:14 10° NNE
Cosmos 2219 Rocket 2.9 23:06:48 10° SW 23:12:22 54° NW 23:17:57 10° NNE
Uosat 12 SS-18 rocket 4.3 23:10:43 17° SW 23:14:11 80° NW 23:19:23 10° NE
SAR-Lupe-2 4.3 23:11:22 10° NNE 23:14:46 39° E 23:15:31 34° SE
ATLAS 3B R/B 3.0 23:08:53 10° SW 23:15:25 65° NW 23:22:14 10° NE
Meteor 2-10 Rocket 4.3 23:11:29 10° NNW 23:16:14 39° W 23:18:55 22° SSW
Cosmos 1503 Rocket 4.1 23:11:13 10° NNW 23:16:37 76° WSW 23:19:20 30° S
FALCON 9 DEB 2.7 23:16:35 22° WSW 23:18:26 87° NNW 23:21:33 10° ENE
FALCON 9 DEB 2.7 23:19:51 39° SW 23:20:52 81° SSE 23:24:01 10° ENE
ATLAS CENTAUR R/B 3.2 23:18:18 10° WNW 23:21:29 20° WSW 23:22:33 18° SW
SL-16 R/B 3.5 23:20:20 20° SE 23:22:24 25° ESE 23:26:58 10° NE
Cosmos 2058 Rocket 3.1 23:19:16 10° NNW 23:23:44 76° W 23:25:34 35° S
Iridium 2 4.3 23:22:59 29° SW 23:24:32 46° W 23:28:10 10° N
Cosmos 2237 Rocket 2.2 23:24:08 28° SSW 23:27:11 71° ESE 23:32:49 10° NNE
FALCON 9 DEB 2.8 23:25:34 21° WSW 23:27:32 81° NNW 23:30:39 10° ENE
USA 215 3.3 23:21:48 10° NE 23:28:22 82° NNW 23:34:54 10° WSW
ATLAS CENTAUR R/B 3.6 23:25:37 28° S 23:28:34 50° ESE 23:40:55 10° NE
Cosmos 1867 4.2 23:25:33 10° NW 23:30:42 42° WSW 23:32:53 29° SSW
Tsikada Rocket 4.4 23:28:42 25° SSE 23:32:05 51° E 23:38:02 10° NNE
Thor Agena Rocket 4.0 23:28:57 10° NNE 23:34:06 50° E 23:36:27 29° SSE
GP-B 3.8 23:30:54 10° NNE 23:35:10 43° E 23:37:02 28° SE
Cosmos 1455 3.1 23:32:42 10° NNW 23:36:17 38° W 23:37:30 30° SW
Cosmos 389 Rocket 4.3 23:33:50 10° NW 23:36:20 19° W 23:37:17 17° WSW
Cosmos 2369 Rocket 4.1 23:31:53 10° NNW 23:36:44 27° NE 23:41:34 10° ESE
Meteor 1-21 Rocket 4.2 23:39:34 28° SSW 23:42:40 84° WNW 23:48:26 10° N
Meteor 1-4 Rocket 2.5 23:40:28 10° N 23:43:58 72° ENE 23:44:52 46° SSE
COSMOS 2428 4.0 23:44:04 10° WSW 23:49:24 38° NW 23:54:47 10° NNE
NOSS 0 Rocket 4.2 23:45:23 17° SW 23:50:14 69° WNW 23:56:29 10° NNE
ALOS 2 3.4 23:49:12 28° SW 23:50:49 38° W 23:54:56 10° NNW
SJ 16-02 1.9 23:50:12 10° NNW 23:54:31 52° ENE 23:57:01 23° SE
